{"data":{"norad_id":31127,"epoch":"2026-05-24T20:33:21.248352Z","epoch_age_seconds":87696,"freshness":"FRESH","line1":"1 31127U 07012L   26144.85649593  .00000514  00000+0  10428-3 0  9997","line2":"2 31127  98.3971 116.9538 0062828 332.4423  27.3452 14.64480721 17876","mean_motion":14.64480721,"eccentricity":0.0062828,"inclination_deg":98.3971,"raan_deg":116.9538,"arg_perigee_deg":332.4423,"mean_anomaly_deg":27.3452,"bstar":0.00010428,"rev_number":1787,"period_min":98.328368502981,"perigee_km":634.40608241501,"apogee_km":723.08001435097,"semimajor_km":7056.880048383,"source":"CELESTRAK","updated_at":"2026-05-25T13:37:55.097015Z"}}